Location: McCall
(45.0000°N, 116.0000°W)
Time: 09:11:47
(UTC-06:00)

Saudisat 1A - Visible Passes

Search period start: 18 April 2015 00:00
Search period end: 28 April 2015 00:00
Orbit: 582 x 617 km, 64.6° (Epoch: 17 April)

Date Brightness Start Highest point End Pass type
(mag) Time Alt. Az. Time Alt. Az. Time Alt. Az.
25 Apr 10.6 05:44:17 10° SSE 05:46:46 15° ESE 05:49:26 10° ENE visible
26 Apr 9.9 05:54:01 10° S 05:57:39 27° ESE 06:01:25 10° ENE visible
27 Apr 8.9 06:04:26 10° SSW 06:08:37 49° ESE 06:12:54 10° NE visible
